Temp_Advection
nan nan nan nan nan nan nan nan nan nan nan nan nan nan nan nan nan nan nan nan nan nan nan nan nan nan nan nan nan nan nan nan nan nan nan nan nan nan nan nan nan nan nan nan nan nan nan nan nan
nan -0 -0 -0 -0 0 -0 -0 -0 -0 -0 -0 -0 -0 -0 -0 -0 -0 0 0 0 -0 -0 -0 -0 0 0 0 0 0 0 0 0 0 -0 -0 -0 0 0 0 -0 -0 -0 -0 0 0 -0 -0 nan
nan -0 -0 -0 0 0 0 -0 -0 -0 -0 -0 -0 -0 -0 -0 -0 0 0 -0 -0 -0 -0 -0 -0 0 -0 -0 0 0 0 0 0 -0 -0 -0 -0 0 0 -0 -0 0 0 0 0 -0 -0 0 nan
nan -0 -0 0 -0 -0 -0 -0 -0 -1 -0 0 -0 -0 -0 -0 -0 0 -0 -0 -0 -0 -0 -0 -0 -0 -0 0 0 0 0 -0 0 0 -0 -0 -0 0 -0 -0 0 -0 -0 -0 0 0 0 0 nan
nan -0 -0 -0 -0 -0 -0 -0 -0 -0 -0 -1 -0 -0 -0 -0 0 0 0 -0 -0 -0 -0 -0 -0 -0 0 0 0 0 0 0 0 0 0 0 -0 0 0 -0 -0 -0 -0 -0 -0 -0 -0 -0 nan
nan -0 -0 0 -0 -0 -0 -0 0 -0 -0 -0 -0 -0 -0 -0 -0 0 0 0 0 -0 -0 -0 -0 -0 0 0 0 0 0 0 0 0 0 -0 0 0 0 0 -0 -0 -0 0 0 -0 -0 -0 nan
nan -0 0 0 -0 -0 -0 -0 0 0 -0 -0 -0 -0 -0 -0 -0 0 0 0 0 0 -0 -0 -0 -0 0 0 0 0 0 0 0 0 0 0 -0 0 0 0 0 -0 0 0 -0 0 0 0 nan
nan -0 0 -0 -0 -0 -0 -0 -0 0 -0 -0 -0 -0 -0 -0 -0 0 0 0 0 0 0 -0 -0 -0 -0 0 0 0 0 -0 0 0 0 0 -0 -0 0 0 0 -0 -0 0 0 0 0 -0 nan
nan -0 -0 -0 0 -0 0 -0 -0 -0 -0 -1 -0 -0 -0 -0 -0 -0 0 0 0 0 0 0 0 0 0 0 0 0 0 -0 -0 0 0 -0 -0 0 0 0 0 0 0 0 1 0 0 0 nan
nan 0 -0 -0 -0 -0 -0 -0 -0 -0 -0 -0 -0 -0 -0 -0 -0 -0 0 0 0 0 0 0 0 0 0 0 0 0 0 0 0 0 0 0 0 0 0 0 0 0 0 0 0 1 1 1 nan
nan -0 -0 -0 -0 0 0 -0 -0 -0 -0 -0 -1 -1 -0 -0 -0 -0 0 0 0 0 0 0 0 0 0 0 0 0 0 0 0 0 0 0 0 0 0 0 0 0 0 0 0 0 0 0 nan
nan -0 -0 -0 -0 0 0 -0 -0 -1 -1 -0 0 -1 -1 -0 -0 -0 0 0 0 0 0 0 0 0 0 0 0 0 0 0 0 0 0 0 0 0 0 0 0 0 0 0 0 0 0 0 nan
nan -0 -0 -0 0 0 0 -0 -0 -1 -2 -1 -0 -0 -0 -0 -0 -0 0 0 0 0 0 0 0 0 0 0 0 0 0 0 0 0 0 0 0 -0 0 -0 0 0 -0 -0 -0 -0 -0 -0 nan
nan -0 -0 -0 0 0 -0 -0 -0 -2 -0 -0 -0 -0 -0 -1 -0 -0 0 0 0 0 0 0 0 0 0 0 0 0 0 0 0 0 0 -0 -0 -0 -0 -0 -0 -0 -0 -0 -0 -0 -0 -0 nan
nan 0 -0 -0 -0 -0 0 0 -1 -2 0 -0 -0 -0 -0 -0 -0 -0 0 0 0 -0 -0 -0 0 0 0 0 0 0 0 0 0 0 0 0 -0 -0 -0 -0 -0 0 0 0 0 0 0 0 nan
nan 0 -0 -0 0 -0 0 -0 -0 -0 0 -0 -0 -0 -0 0 0 -0 -0 -0 -0 -0 -0 -0 -0 0 0 0 0 0 0 0 0 0 0 0 0 0 0 -0 -0 0 0 0 0 0 0 0 nan
nan 0 -0 -0 -0 0 0 -0 -0 -0 0 0 -0 -0 -0 -0 0 0 0 -0 -0 -0 -0 -0 -0 0 0 0 0 0 0 0 0 0 0 0 0 0 0 0 0 0 -0 0 0 0 -0 -0 nan
nan -0 -0 0 0 0 0 -0 -0 -0 -0 -0 0 0 0 0 0 0 0 0 0 -0 0 0 -0 -0 -0 -0 0 0 0 0 0 0 0 0 -0 -0 -0 0 -0 -0 -0 -0 -0 -0 -0 -0 nan
nan 0 0 0 -0 0 0 -0 -1 -0 0 0 0 0 0 0 0 1 1 0 0 0 0 0 -0 -0 -0 -0 -0 -0 -0 -0 -0 -0 -0 -0 -0 -0 -0 -0 -0 -0 -0 -0 -0 -0 -1 -0 nan
nan 0 0 -0 0 0 -0 -0 0 0 -0 0 0 -0 0 0 0 0 1 1 0 0 0 0 -0 -0 -0 -0 -1 -0 -0 -0 -0 -0 -0 -0 -0 -0 -0 -0 -0 -0 -0 -0 -0 -0 -1 -1 nan
nan 0 -0 -0 0 0 -0 -0 -0 0 0 0 1 0 0 0 -0 0 1 0 0 0 0 -0 -0 -0 -1 -1 -1 -0 -0 -0 -0 -0 -0 -0 -0 -0 -0 -0 -0 -0 -0 -0 -0 -0 -0 -1 nan
nan -0 0 -0 0 0 0 -0 -0 -0 0 -0 1 1 1 0 0 0 0 0 0 -0 0 0 -0 -1 -1 -0 -0 -0 -0 -0 -0 -0 -0 -0 -0 -0 -0 -0 -0 -0 -0 -0 -0 -0 -0 -0 nan
nan 0 0 0 0 -0 -0 -0 0 0 -0 0 0 0 1 0 0 0 0 0 0 0 0 -0 -0 -1 -0 -0 -0 -0 -0 -0 -0 0 0 0 -0 -0 -0 -0 -0 -0 -1 -1 -1 -1 -0 -0 nan
nan -0 -0 -0 -0 -0 0 0 -0 -0 0 -0 -0 -0 0 0 0 0 0 0 0 0 0 0 -0 -0 -0 -0 -0 -0 -0 -0 -0 -0 -0 -0 -0 -0 -0 -0 -0 -0 -1 -1 -1 -1 -0 -0 nan
nan -0 -0 0 -0 0 -0 0 -0 0 0 -0 -1 -1 -0 0 0 0 0 0 0 0 0 0 -0 -0 -0 -0 -0 -0 -0 -0 -0 -1 -1 -1 -1 -1 -1 -1 -1 -1 -1 -1 -1 -1 -1 -0 nan
nan 0 -0 -0 0 0 -0 -1 -0 0 0 0 1 -0 0 0 0 0 0 0 0 0 0 0 -0 -0 -0 -0 -0 -0 -0 -0 -0 -1 -1 -1 -1 -1 -1 -1 -1 -1 -1 -1 -1 -1 -1 -0 nan
nan 0 0 -0 0 0 -0 -0 -0 -0 -0 0 1 2 1 0 0 0 0 0 0 0 0 0 0 -0 -0 -0 -0 -0 -0 -1 -1 -1 -1 -1 -1 -1 -1 -1 -1 -1 -1 -1 -1 -1 -1 -0 nan
nan 0 0 -0 -0 0 0 -0 -0 0 -0 -0 0 0 0 0 -0 0 0 0 0 0 0 0 0 -0 -0 -0 -0 -0 -1 -1 -1 -1 -1 -1 -1 -1 -1 -1 -1 -1 -1 -1 -1 -1 -1 -1 nan
nan 0 -0 -0 0 0 -0 0 0 0 0 0 -0 -1 -1 -0 -0 0 0 0 0 0 0 0 0 -0 -0 -0 -0 -0 -1 -1 -1 -1 -1 -1 -1 -1 -1 -1 -1 -1 -1 -1 -1 -1 -1 -1 nan
nan nan nan nan nan nan nan nan nan nan nan nan nan nan nan nan nan nan nan nan nan nan nan nan nan nan nan nan nan nan nan nan nan nan nan nan nan nan nan nan nan nan nan nan nan nan nan nan nan
Wind_Speed
16 17 13 1 2 3 1 4 1 2 3 3 12 5 3 4 3 2 5 4 4 4 1 5 11 11 10 13 10 9 8 6 6 2 4 3 4 5 4 4 5 3 4 3 2 3 5 8 6
16 17 5 2 3 2 3 3 1 1 11 18 8 6 4 3 6 4 4 4 4 4 3 3 11 11 10 8 4 6 9 7 6 4 4 2 2 5 3 3 5 6 8 6 5 6 6 11 7
15 13 2 3 2 2 2 1 5 11 20 5 3 4 3 2 3 2 3 4 3 4 4 2 7 9 8 5 6 8 10 7 6 5 8 5 4 7 8 9 7 7 9 8 6 8 8 8 10
10 4 4 3 1 3 3 4 4 13 4 3 4 7 5 6 2 1 2 3 3 4 5 3 6 9 8 8 10 11 8 6 3 6 6 6 5 6 9 5 5 8 8 9 6 6 10 11 10
9 3 3 2 3 4 4 6 9 4 7 9 3 3 4 4 6 4 1 1 2 4 5 4 6 8 8 9 8 5 4 4 3 5 4 4 5 7 9 8 9 11 12 9 7 7 8 8 10
2 2 2 1 3 4 7 5 6 5 8 11 5 6 4 4 4 5 3 2 2 3 4 3 4 7 6 5 5 4 3 4 3 8 7 6 7 10 11 13 11 12 12 9 9 10 11 10 10
4 3 3 2 3 5 3 6 3 7 8 2 15 4 3 6 5 6 6 4 3 2 2 2 2 3 5 5 6 5 5 5 5 4 11 8 11 10 12 13 11 12 12 10 11 11 12 13 13
4 3 4 3 3 5 3 7 8 6 6 16 4 3 4 15 13 9 9 7 6 4 3 2 1 1 1 3 6 6 7 6 7 6 7 10 10 11 10 9 11 13 13 12 11 12 13 14 13
5 2 4 4 5 4 3 4 3 9 10 15 7 8 9 15 16 10 13 11 9 7 5 4 3 3 3 4 5 6 7 9 8 7 7 9 8 8 9 10 11 13 13 12 12 12 14 15 15
5 4 9 6 4 4 6 7 11 7 9 9 10 15 14 18 16 13 14 13 11 9 7 7 7 5 6 5 5 5 6 7 8 8 7 8 8 8 10 10 11 12 13 13 14 14 15 16 17
6 5 5 5 11 10 7 7 4 4 5 10 19 22 20 21 18 18 15 16 14 12 12 10 10 9 9 8 7 6 7 7 7 7 8 8 8 9 10 12 12 14 14 15 16 17 18 19 20
3 9 7 5 7 5 5 9 9 13 19 18 26 28 26 23 18 20 15 13 15 15 14 13 12 13 12 11 9 9 9 8 7 7 8 9 9 10 12 13 15 16 17 18 19 20 21 22 23
4 4 9 16 14 16 14 17 13 18 31 23 20 15 22 23 24 19 13 11 13 15 13 13 13 13 11 12 10 9 9 9 9 9 9 11 12 12 14 15 16 16 17 19 21 22 24 25 26
9 17 20 15 19 14 8 13 2 31 27 25 21 23 20 23 17 16 11 11 12 12 12 12 13 13 11 10 8 8 8 8 9 10 10 12 13 14 15 16 17 18 18 20 22 25 26 28 30
8 2 4 6 8 7 7 8 9 29 22 19 17 15 16 8 9 10 10 8 10 11 13 13 15 15 12 9 7 6 6 7 9 9 11 12 14 15 16 17 18 19 20 22 24 25 27 29 30
8 3 9 3 3 4 6 10 7 12 4 5 5 6 2 1 1 1 2 3 4 6 8 9 8 10 12 11 8 7 7 7 8 10 12 13 14 16 18 19 20 21 24 25 27 28 29 31 31
4 5 6 7 7 5 6 7 5 1 8 11 7 3 3 4 5 5 4 3 3 3 4 5 3 2 8 10 10 8 7 8 10 12 13 14 15 17 19 20 21 22 25 26 27 28 29 31 32
7 7 4 5 2 2 4 12 14 17 9 10 5 4 6 6 7 9 9 8 8 7 8 8 9 8 5 2 3 5 6 7 9 11 13 13 14 15 15 16 17 20 22 23 24 26 26 28 30
6 6 9 2 2 1 4 6 14 11 9 10 6 11 11 10 11 12 12 12 12 12 13 15 15 16 12 9 7 4 1 2 3 5 7 8 9 10 12 13 14 15 17 19 20 23 25 26 27
5 4 4 3 1 2 6 14 13 3 6 6 14 16 15 15 13 13 14 14 14 16 17 18 18 16 15 12 11 9 8 8 8 7 6 7 8 9 10 12 14 15 17 18 21 23 26 26 25
4 5 4 4 3 1 5 6 5 2 1 4 12 19 16 17 16 14 15 16 15 16 17 17 17 17 17 16 13 11 10 11 9 9 8 9 9 10 12 15 17 19 21 23 25 26 27 29 30
10 4 3 3 4 2 4 6 5 5 2 4 12 18 19 19 17 15 15 15 15 17 15 15 16 16 17 14 13 11 11 10 11 9 9 9 11 14 17 20 22 24 26 27 28 28 29 30 31
4 6 3 1 3 1 1 2 6 2 3 6 10 15 18 19 17 16 15 15 15 13 12 13 13 14 14 12 12 11 11 11 9 8 10 14 18 21 24 26 28 29 30 30 30 30 29 28 28
9 7 5 4 2 3 5 6 5 3 4 5 6 16 19 21 19 17 16 15 14 13 11 11 11 13 12 11 11 11 10 10 11 14 17 22 26 29 31 31 32 31 31 31 31 30 29 28 28
4 6 2 1 4 5 2 1 8 3 4 7 15 25 23 24 22 19 17 15 14 12 10 9 9 11 11 10 10 11 12 13 16 19 23 25 28 31 31 31 30 30 30 29 29 30 29 29 28
6 6 5 5 4 2 3 5 5 2 4 7 18 28 27 26 23 20 17 15 13 12 10 8 8 9 9 9 10 11 13 16 19 22 25 27 28 28 28 28 28 27 27 28 29 30 31 31 29
4 5 3 4 2 1 3 5 7 1 3 3 17 30 30 27 24 21 18 16 14 12 9 7 6 7 7 8 9 11 15 20 23 24 25 26 26 26 25 24 24 24 26 29 31 33 33 33 33
7 8 3 2 4 3 3 4 4 4 4 3 8 20 28 25 24 22 19 18 15 11 8 6 4 3 5 7 9 13 18 20 22 24 24 24 23 22 22 23 24 27 29 31 33 34 35 35 35
4 2 2 3 2 3 1 4 4 5 3 6 11 24 28 26 25 22 20 18 15 12 9 5 2 2 3 6 10 15 19 21 23 23 22 21 22 22 23 25 27 30 32 33 35 36 36 37 36
5 8 9 4 3 1 2 5 1 5 6 10 16 25 25 22 22 21 20 19 16 12 9 6 3 0 3 9 14 18 21 23 22 21 21 21 21 23 25 28 30 32 34 36 37 38 37 36 36
Wind_Direction
329 340 340 346 86 56 225 244 334 350 339 278 305 256 254 247 225 291 334 342 348 17 75 182 181 198 194 215 243 255 271 288 293 216 206 174 198 308 231 207 248 294 297 264 163 225 249 252 272
329 338 337 54 86 108 257 306 284 280 302 306 290 232 241 262 246 279 338 351 6 34 76 161 187 197 196 229 253 270 278 280 274 202 236 209 231 321 279 243 278 258 266 288 276 218 227 247 241
330 342 356 81 83 186 225 238 296 298 320 258 287 246 249 229 237 281 351 9 23 55 74 125 177 171 180 214 248 273 278 275 274 215 190 180 247 297 308 286 290 304 296 293 289 252 260 258 243
336 335 48 73 272 258 243 294 306 322 353 27 289 284 264 256 252 256 3 27 43 65 77 103 153 164 191 224 251 265 272 266 263 194 185 194 228 291 292 282 305 325 313 300 286 279 264 270 278
334 28 50 45 280 276 266 284 326 310 299 300 285 270 267 281 252 265 257 82 71 74 80 96 158 174 215 232 252 276 286 274 264 197 177 196 240 257 279 280 317 327 328 313 297 297 291 292 288
352 80 62 260 258 269 283 283 321 309 320 302 301 286 260 286 279 257 236 175 155 107 87 90 152 188 224 237 272 272 305 314 296 224 235 241 242 248 274 270 297 311 319 311 297 305 311 308 301
155 107 202 220 258 295 245 338 335 321 310 303 321 264 312 14 300 251 244 222 212 166 108 103 110 182 222 261 276 277 292 310 324 288 241 217 235 223 246 273 290 304 314 303 291 292 296 294 297
189 113 143 225 228 268 256 324 323 336 312 324 333 281 341 347 336 268 254 242 231 216 208 177 188 215 218 254 271 265 270 286 301 316 251 241 251 238 253 276 293 296 303 305 290 287 291 292 298
181 112 184 218 180 243 249 346 295 316 288 311 276 305 310 343 342 295 260 259 253 240 244 251 248 253 271 280 285 279 266 259 292 299 288 261 269 283 280 286 291 293 296 300 302 290 291 293 299
172 180 202 203 198 243 282 294 312 311 303 302 285 304 322 328 337 318 281 266 272 273 277 273 268 272 273 277 292 297 286 290 298 305 301 286 283 284 288 296 302 308 311 312 313 314 313 313 313
186 202 207 231 238 265 277 295 291 281 292 285 294 313 320 315 321 321 293 273 277 284 274 281 277 272 270 278 284 296 293 301 305 310 307 300 296 299 299 302 306 308 313 313 314 315 316 314 315
181 232 212 242 250 260 257 290 281 252 268 295 298 298 305 312 309 316 288 278 278 286 285 282 282 275 274 275 285 286 288 295 305 304 300 302 303 303 306 307 309 311 315 316 315 313 311 308 306
205 225 236 250 262 273 279 264 262 269 284 295 296 293 304 303 297 299 290 271 275 281 279 277 275 273 274 274 281 287 291 295 297 300 301 302 306 312 314 316 315 316 318 317 313 310 307 305 303
203 213 244 260 271 276 255 273 260 276 287 283 278 294 298 297 274 285 278 266 269 277 276 274 274 266 260 263 271 285 291 301 295 298 305 305 308 313 315 316 315 314 316 314 311 310 309 306 304
193 205 278 235 261 253 266 271 236 285 289 280 281 285 305 281 255 262 271 271 271 279 284 284 272 263 256 251 254 269 292 302 307 307 303 303 307 311 310 309 309 311 311 310 307 307 305 303 302
168 166 250 250 172 259 179 267 281 336 259 297 301 325 358 88 162 245 286 299 298 303 303 306 298 257 243 240 238 253 269 281 292 295 296 299 301 304 305 306 308 309 308 308 309 308 307 305 302
188 195 209 278 223 222 185 291 251 254 340 291 316 1 92 80 79 83 69 48 24 1 11 13 1 247 228 225 226 238 252 264 276 289 298 304 307 306 304 303 304 304 306 308 307 307 307 305 304
165 193 173 196 183 159 237 269 284 296 268 260 279 193 141 113 86 83 81 78 78 73 61 57 60 70 87 144 222 247 260 271 285 298 306 310 313 314 313 310 310 311 314 315 314 312 310 308 308
153 161 219 229 264 243 255 270 289 291 267 269 209 171 147 124 103 98 96 92 89 88 83 75 72 68 71 77 88 98 113 14 338 351 340 333 335 334 331 328 326 327 329 329 328 324 324 324 328
144 153 208 274 202 206 299 292 273 284 257 224 186 170 154 134 124 112 107 102 93 86 78 73 68 66 62 60 62 68 68 70 64 60 36 22 12 4 355 346 338 333 330 328 327 329 327 325 330
176 163 165 210 322 235 299 291 325 328 165 122 170 161 155 144 136 124 113 101 95 85 77 72 68 62 59 58 63 71 77 88 89 69 52 33 12 355 344 338 334 332 331 331 330 330 330 327 323
207 192 113 88 32 271 19 292 289 293 239 136 162 166 154 147 139 128 117 109 96 83 78 72 69 66 68 74 81 85 85 74 63 47 29 6 354 349 344 339 336 333 331 329 328 326 323 321 322
194 163 177 181 200 32 319 250 276 340 249 187 185 177 159 149 145 137 129 120 106 98 83 74 70 71 73 67 65 61 58 56 43 24 7 358 353 347 342 339 337 335 334 333 332 330 328 326 323
150 79 55 36 37 269 210 197 271 228 209 154 172 182 164 155 152 148 140 131 121 109 97 85 74 74 70 61 55 47 42 33 14 5 357 353 347 343 339 337 336 335 335 335 334 333 331 329 325
134 115 55 90 211 228 115 171 253 247 222 181 182 182 172 164 161 157 152 145 132 125 110 94 80 79 67 50 42 37 27 15 5 358 351 344 341 338 335 335 336 338 338 339 339 339 336 333 329
155 150 167 189 189 226 131 227 249 171 272 236 194 178 172 168 166 162 159 155 148 138 125 105 87 74 60 44 36 25 14 6 358 351 347 343 339 337 337 338 339 340 340 340 339 339 338 337 333
195 170 132 106 55 94 239 283 292 182 17 122 168 175 176 172 169 169 168 165 159 151 138 121 94 69 49 34 25 11 4 356 351 347 342 338 336 334 334 335 338 341 341 341 341 339 336 333 331
154 142 155 294 188 227 281 281 246 334 13 114 165 173 176 171 173 174 174 170 165 163 155 137 111 67 39 25 11 3 356 352 347 341 337 334 331 332 337 340 342 343 342 339 337 334 332 328 327
144 138 159 164 139 167 244 262 212 267 269 195 185 180 177 176 179 177 175 174 176 174 168 166 140 61 34 12 0 355 352 348 343 337 335 335 336 338 339 342 342 340 338 336 334 332 330 328 327
150 162 196 148 202 106 124 273 294 279 272 190 175 182 182 183 183 183 183 185 183 183 183 183 181 100 6 358 356 352 347 342 338 338 337 337 337 340 342 341 339 338 337 336 333 330 330 328 326
Height
1536 1534 1532 1530 1536 1537 1541 1533 1528 1526 1524 1522 1521 1520 1519 1517 1517 1522 1513 1512 1511 1511 1511 1512 1513 1515 1517 1518 1520 1520 1519 1519 1518 1518 1519 1519 1519 1520 1520 1521 1520 1521 1520 1519 1520 1521 1523 1523 1523
1536 1534 1532 1530 1539 1543 1538 1531 1530 1526 1525 1520 1517 1517 1518 1514 1514 1513 1512 1512 1511 1511 1511 1512 1513 1515 1517 1518 1519 1519 1519 1519 1518 1518 1519 1520 1520 1519 1519 1520 1519 1519 1519 1519 1518 1519 1521 1520 1521
1536 1533 1533 1536 1546 1542 1537 1530 1528 1524 1520 1518 1517 1516 1515 1513 1512 1512 1512 1512 1512 1511 1511 1512 1512 1515 1517 1518 1518 1519 1518 1518 1518 1518 1518 1519 1520 1520 1520 1519 1519 1519 1518 1518 1518 1518 1518 1519 1519
1535 1534 1536 1539 1542 1536 1534 1528 1528 1523 1518 1517 1517 1516 1514 1512 1511 1511 1511 1511 1511 1511 1511 1512 1512 1515 1516 1517 1517 1517 1517 1517 1517 1518 1518 1519 1521 1520 1519 1518 1519 1519 1518 1517 1517 1517 1517 1517 1517
1535 1534 1541 1545 1543 1536 1531 1528 1527 1525 1521 1518 1517 1513 1512 1511 1510 1511 1511 1510 1511 1511 1511 1513 1513 1514 1516 1516 1516 1516 1515 1516 1517 1518 1519 1519 1520 1521 1520 1518 1518 1518 1517 1516 1516 1516 1516 1515 1515
1535 1536 1543 1546 1543 1534 1530 1527 1526 1524 1521 1518 1518 1515 1510 1510 1510 1510 1511 1510 1511 1510 1510 1511 1512 1513 1514 1515 1515 1515 1515 1515 1516 1517 1518 1519 1519 1520 1520 1518 1518 1517 1516 1515 1516 1516 1515 1514 1513
1535 1537 1542 1543 1541 1536 1528 1527 1526 1523 1520 1518 1517 1515 1511 1510 1509 1509 1510 1510 1510 1510 1509 1510 1511 1512 1513 1514 1514 1514 1514 1514 1515 1516 1517 1517 1517 1518 1518 1517 1517 1517 1516 1515 1515 1515 1514 1513 1512
1533 1534 1542 1542 1539 1534 1526 1525 1525 1523 1519 1518 1515 1514 1512 1510 1509 1509 1509 1509 1510 1510 1509 1510 1510 1511 1511 1512 1512 1513 1513 1514 1514 1514 1515 1515 1515 1516 1516 1516 1516 1515 1514 1513 1513 1513 1512 1511 1509
1531 1537 1540 1537 1538 1528 1525 1524 1522 1521 1519 1518 1515 1514 1512 1510 1508 1508 1508 1509 1509 1510 1509 1509 1510 1510 1510 1511 1511 1511 1512 1512 1513 1513 1513 1514 1514 1514 1514 1514 1514 1513 1512 1511 1510 1510 1510 1508 1507
1529 1535 1531 1526 1527 1525 1523 1522 1520 1519 1517 1514 1513 1512 1510 1509 1507 1507 1507 1508 1508 1509 1509 1509 1509 1509 1509 1509 1510 1510 1510 1511 1511 1511 1512 1512 1512 1513 1513 1513 1512 1512 1511 1510 1509 1508 1507 1506 1504
1525 1526 1524 1522 1523 1523 1522 1520 1518 1517 1513 1511 1511 1507 1507 1506 1506 1505 1505 1505 1506 1507 1507 1507 1508 1508 1507 1508 1508 1508 1509 1510 1510 1510 1511 1511 1511 1511 1511 1511 1511 1510 1510 1508 1507 1506 1505 1504 1502
1523 1521 1520 1519 1520 1521 1520 1518 1515 1514 1508 1508 1507 1505 1504 1502 1502 1503 1502 1502 1503 1504 1505 1505 1505 1505 1505 1506 1506 1506 1507 1508 1509 1509 1509 1509 1510 1510 1510 1509 1509 1508 1508 1506 1505 1503 1502 1500 1498
1519 1518 1517 1517 1518 1517 1517 1513 1513 1508 1504 1504 1502 1502 1502 1500 1500 1500 1499 1499 1500 1500 1501 1501 1501 1501 1502 1503 1504 1504 1505 1506 1507 1508 1508 1509 1508 1508 1508 1507 1507 1506 1505 1503 1501 1499 1497 1495 1493
1512 1514 1514 1514 1514 1514 1513 1508 1509 1496 1498 1498 1498 1499 1498 1495 1495 1496 1496 1495 1496 1497 1497 1497 1497 1497 1499 1499 1501 1502 1503 1504 1505 1506 1507 1507 1507 1506 1506 1505 1504 1503 1501 1499 1497 1494 1492 1489 1487
1511 1514 1513 1511 1510 1510 1509 1505 1502 1493 1493 1492 1495 1496 1493 1491 1491 1493 1493 1493 1493 1493 1493 1493 1493 1493 1494 1496 1498 1499 1501 1502 1503 1504 1505 1505 1504 1503 1502 1501 1500 1499 1497 1495 1492 1489 1486 1483 1481
1509 1513 1516 1507 1507 1505 1506 1498 1494 1492 1489 1492 1493 1492 1490 1490 1490 1491 1490 1490 1490 1490 1490 1490 1489 1489 1490 1493 1495 1496 1498 1499 1500 1501 1501 1501 1501 1500 1499 1497 1496 1494 1492 1490 1487 1484 1481 1477 1474
1507 1513 1513 1510 1501 1504 1504 1496 1491 1491 1491 1491 1492 1490 1490 1491 1491 1490 1489 1489 1489 1489 1488 1487 1486 1485 1487 1489 1491 1493 1495 1496 1497 1497 1498 1498 1498 1497 1496 1494 1493 1490 1488 1485 1482 1479 1475 1471 1467
1506 1506 1508 1507 1502 1503 1502 1498 1490 1487 1487 1486 1488 1489 1489 1491 1492 1490 1490 1489 1489 1488 1487 1486 1485 1485 1486 1487 1489 1491 1492 1493 1493 1494 1495 1495 1495 1494 1492 1491 1489 1486 1484 1481 1477 1473 1470 1466 1462
1497 1497 1500 1501 1500 1502 1499 1496 1486 1481 1482 1484 1485 1487 1489 1490 1492 1492 1490 1490 1490 1489 1488 1487 1487 1487 1487 1487 1488 1490 1490 1491 1492 1493 1493 1493 1492 1491 1490 1488 1486 1484 1481 1478 1474 1470 1466 1463 1458
1495 1498 1502 1501 1500 1501 1496 1489 1478 1477 1477 1478 1480 1485 1487 1489 1492 1492 1492 1491 1491 1491 1490 1488 1488 1489 1488 1488 1488 1489 1490 1491 1492 1492 1492 1491 1491 1490 1489 1487 1484 1482 1479 1476 1472 1467 1462 1460 1457
1494 1497 1501 1501 1501 1499 1498 1486 1480 1475 1476 1476 1479 1482 1486 1487 1490 1492 1492 1491 1494 1493 1491 1490 1490 1489 1489 1490 1491 1491 1491 1492 1493 1492 1492 1491 1491 1490 1488 1486 1483 1480 1476 1472 1468 1464 1460 1455 1453
1494 1492 1492 1498 1503 1506 1499 1501 1486 1475 1476 1478 1481 1482 1483 1485 1489 1491 1491 1493 1494 1494 1494 1493 1492 1491 1492 1493 1494 1494 1493 1493 1493 1493 1492 1492 1490 1489 1486 1484 1480 1477 1473 1469 1465 1461 1457 1453 1448
1491 1490 1494 1498 1503 1508 1505 1505 1481 1479 1476 1477 1479 1482 1483 1485 1487 1490 1491 1494 1494 1496 1496 1495 1494 1493 1493 1495 1495 1494 1494 1494 1494 1494 1493 1491 1489 1486 1483 1480 1476 1472 1468 1464 1460 1456 1453 1449 1444
1487 1493 1501 1503 1507 1510 1500 1497 1482 1475 1470 1473 1477 1481 1483 1483 1486 1490 1492 1494 1495 1496 1496 1497 1496 1495 1495 1495 1496 1495 1495 1494 1494 1492 1490 1488 1485 1482 1479 1475 1471 1467 1463 1459 1455 1451 1447 1443 1439
1483 1492 1511 1520 1517 1503 1503 1504 1474 1467 1467 1466 1469 1475 1479 1481 1484 1489 1491 1494 1495 1496 1497 1497 1497 1496 1496 1496 1495 1494 1494 1493 1491 1490 1487 1485 1482 1478 1475 1471 1467 1463 1459 1455 1451 1447 1443 1439 1434
1483 1486 1498 1500 1505 1499 1506 1494 1468 1462 1463 1463 1466 1472 1477 1479 1483 1487 1491 1493 1495 1496 1496 1496 1497 1496 1495 1494 1494 1494 1493 1491 1490 1488 1485 1482 1479 1475 1471 1468 1464 1460 1456 1452 1448 1443 1438 1433 1429
1490 1489 1485 1499 1505 1502 1490 1477 1462 1462 1464 1463 1465 1470 1474 1478 1481 1486 1489 1492 1494 1495 1495 1496 1496 1495 1494 1494 1494 1493 1492 1490 1488 1486 1483 1479 1476 1473 1469 1465 1462 1458 1453 1448 1443 1438 1434 1429 1424
1471 1476 1495 1495 1495 1498 1492 1487 1471 1463 1463 1466 1467 1468 1472 1477 1480 1484 1488 1491 1492 1494 1494 1495 1495 1493 1493 1493 1493 1491 1490 1488 1486 1483 1479 1476 1473 1470 1466 1462 1457 1453 1448 1444 1439 1434 1429 1423 1418
1475 1482 1486 1486 1490 1488 1493 1477 1467 1463 1462 1462 1464 1467 1471 1474 1479 1482 1486 1489 1490 1491 1492 1493 1493 1493 1492 1492 1491 1489 1487 1484 1482 1479 1476 1473 1469 1465 1461 1457 1452 1449 1444 1439 1434 1428 1422 1416 1410
1462 1469 1474 1479 1491 1497 1494 1478 1463 1462 1459 1458 1461 1466 1470 1475 1478 1481 1483 1486 1488 1489 1490 1491 1491 1491 1490 1490 1488 1486 1484 1481 1479 1476 1472 1468 1465 1461 1457 1453 1449 1444 1439 1433 1428 1421 1415 1409 1403